contact:dominique.lefevre@mio.osupytheas.fr, maurice.libes@osupytheas.fr, didier.mallarino@osupytheas.fr
Project:EMSO http://www.emso-fr.org/EMSO-France
Depth: 2436.0 m
Title:EMSO Ligure Ouest : Data MII capteur AQUADOPP
Date,Latitude,Longitude,X_East,Y_North,Z_Up,Amplitude_X,Amplitude_Y,Amplitude_Z,Batterie,SoundSpeed,Heading,Pitch,Roll,Pressure,TIS,Speed,Direction
, degrees North, degrees East, m.s-1, m.s-1,m.s-1, 1, 1, 1, Volt, m.s-1, degree, degree, degree, dbar, degree_C, m.s-1, degree
2019-11-05T00:04:04,42.805,6.029,0.024,0.009,-0.014,98.0,105.0,97.0,13.3,1505.1,327.1,-0.8,1.8,2470.525,13.27,0.025,69.4
2019-11-05T00:07:05,42.805,6.029,0.029,-0.001,-0.017,100.0,104.0,97.0,13.3,1505.2,323.1,-0.7,1.8,2470.416,13.29,0.029,92.0
2019-11-05T00:10:06,42.805,6.029,0.02,0.02,-0.045,98.0,105.0,97.0,13.3,1505.3,326.1,-0.7,1.8,2470.341,13.31,0.028,45.0
2019-11-05T00:13:07,42.805,6.029,0.037,0.022,-0.011,99.0,105.0,98.0,13.4,1505.3,326.3,-0.7,1.9,2470.256,13.32,0.043,59.3
2019-11-05T00:16:08,42.805,6.029,0.048,0.043,0.049,97.0,103.0,97.0,13.3,1505.3,326.2,-0.8,1.9,2470.204,13.32,0.064,48.1
2019-11-05T00:19:09,42.805,6.029,0.07,0.014,0.042,99.0,104.0,98.0,13.4,1505.3,325.2,-0.7,1.9,2470.116,13.33,0.071,78.7
2019-11-05T00:22:10,42.805,6.029,0.012,0.025,-0.01,99.0,104.0,97.0,13.4,1505.3,326.2,-0.7,1.8,2470.084,13.33,0.027,25.6
2019-11-05T00:25:11,42.805,6.029,0.019,0.029,0.004,100.0,104.0,98.0,13.3,1505.4,327.1,-0.7,1.9,2470.034,13.34,0.034,33.2
2019-11-05T00:28:12,42.805,6.029,0.026,0.013,-0.035,98.0,104.0,97.0,13.4,1505.4,325.3,-0.7,1.8,2469.997,13.34,0.029,63.4
2019-11-05T15:14:13,42.805,6.029,0.029,-0.002,0.051,99.0,102.0,98.0,13.4,1505.1,325.5,-0.7,1.8,2470.696,13.27,0.029,93.9
2019-11-05T15:17:14,42.805,6.029,0.041,-0.006,-0.016,100.0,102.0,98.0,13.4,1505.2,323.0,-0.8,1.8,2470.512,13.29,0.041,98.3
2019-11-05T15:20:15,42.805,6.029,0.017,0.029,-0.016,99.0,102.0,99.0,13.4,1505.3,326.3,-0.7,1.9,2470.412,13.31,0.033,30.4
2019-11-05T15:23:16,42.805,6.029,-0.011,0.008,-0.048,101.0,104.0,97.0,13.3,1505.3,324.7,-0.7,1.9,2470.346,13.31,0.013,306.0
2019-11-05T15:26:17,42.805,6.029,0.012,0.025,0.005,100.0,103.0,98.0,13.4,1505.3,326.0,-0.7,1.8,2470.275,13.32,0.027,25.6
2019-11-05T15:29:18,42.805,6.029,0.003,0.0,-0.014,97.0,104.0,100.0,13.4,1505.3,324.6,-0.7,1.8,2470.197,13.33,0.003,90.0
2019-11-05T15:32:19,42.805,6.029,-0.011,0.021,-0.035,99.0,103.0,98.0,13.4,1505.3,325.4,-0.7,1.8,2470.14,13.33,0.023,332.4
2019-11-05T15:35:20,42.805,6.029,0.01,0.004,-0.04,101.0,103.0,98.0,13.4,1505.3,323.7,-0.7,1.8,2470.122,13.33,0.01,68.2
2019-11-05T15:38:21,42.805,6.029,0.016,0.029,-0.008,100.0,103.0,98.0,13.4,1505.4,326.6,-0.7,1.8,2470.073,13.34,0.033,28.9
2019-11-05T15:41:22,42.805,6.029,-0.023,-0.01,-0.076,99.0,104.0,97.0,13.4,1505.4,325.4,-0.7,1.8,2470.103,13.34,0.025,246.5
2019-11-05T15:44:23,42.805,6.029,0.003,0.003,-0.039,100.0,103.0,98.0,13.4,1505.4,328.5,-0.7,1.8,2470.071,13.34,0.004,45.0
2019-11-05T15:47:24,42.805,6.029,0.0,0.003,-0.017,99.0,104.0,98.0,13.4,1505.4,325.7,-0.7,1.8,2470.031,13.34,0.003,0.0
2019-11-05T15:50:25,42.805,6.029,0.019,0.003,0.008,99.0,103.0,98.0,13.4,1505.4,323.2,-0.7,1.8,2470.05,13.34,0.019,81.0
2019-11-05T15:53:26,42.805,6.029,0.018,0.026,0.007,100.0,104.0,97.0,13.4,1505.4,325.6,-0.7,1.8,2470.011,13.34,0.031,34.7
2019-11-05T15:56:27,42.805,6.029,0.018,0.016,-0.004,100.0,102.0,98.0,13.4,1505.4,325.1,-0.7,1.8,2470.024,13.34,0.024,48.4
2019-11-05T15:59:28,42.805,6.029,0.025,0.012,0.0,106.0,102.0,97.0,13.4,1505.4,327.6,-0.7,1.9,2470.043,13.34,0.027,64.4
2019-11-05T16:02:29,42.805,6.029,0.024,0.001,0.019,99.0,103.0,99.0,13.3,1505.4,325.0,-0.7,1.8,2470.042,13.34,0.024,87.6
2019-11-05T16:05:30,42.805,6.029,0.017,0.026,-0.011,99.0,102.0,98.0,13.3,1505.4,325.9,-0.7,1.8,2470.008,13.34,0.031,33.2
2019-11-05T16:08:31,42.805,6.029,-0.01,0.021,0.007,99.0,104.0,98.0,13.4,1505.4,325.0,-0.7,1.8,2470.05,13.34,0.023,334.5
2019-11-05T16:11:32,42.805,6.029,0.036,0.015,-0.017,100.0,103.0,98.0,13.4,1505.4,323.1,-0.7,1.9,2470.013,13.34,0.039,67.4
2019-11-05T16:14:33,42.805,6.029,0.005,0.015,-0.033,99.0,103.0,98.0,13.4,1505.4,322.9,-0.7,1.8,2470.026,13.34,0.015,18.4
2019-11-05T16:17:34,42.805,6.029,0.005,0.004,-0.022,100.0,104.0,98.0,13.4,1505.4,327.8,-0.7,1.8,2470.013,13.34,0.006,51.3
2019-11-05T16:20:35,42.805,6.029,0.027,0.0,0.003,99.0,103.0,98.0,13.4,1505.4,327.0,-0.7,1.8,2470.032,13.34,0.026,90.0
2019-11-05T16:23:36,42.805,6.029,0.003,0.003,-0.003,99.0,103.0,99.0,13.3,1505.4,325.5,-0.7,1.8,2470.057,13.34,0.004,45.0
2019-11-05T16:26:37,42.805,6.029,-0.005,0.026,-0.021,100.0,103.0,98.0,13.4,1505.4,325.7,-0.7,1.8,2470.07,13.34,0.026,349.1
2019-11-05T16:29:38,42.805,6.029,-0.029,0.014,-0.018,100.0,103.0,98.0,13.4,1505.4,326.5,-0.7,1.8,2470.043,13.34,0.032,295.8
2019-11-05T16:32:39,42.805,6.029,0.008,0.009,0.011,101.0,103.0,96.0,13.4,1505.4,326.8,-0.7,1.8,2470.038,13.34,0.012,41.6
2019-11-05T16:35:40,42.805,6.029,0.003,0.007,-0.008,99.0,103.0,100.0,13.4,1505.4,327.1,-0.7,1.8,2470.043,13.34,0.007,23.2
2019-11-05T16:38:41,42.805,6.029,-0.019,0.002,-0.058,99.0,103.0,98.0,13.4,1505.4,327.1,-0.7,1.8,2470.026,13.34,0.019,276.0
2019-11-05T16:41:42,42.805,6.029,0.009,0.027,-0.013,101.0,103.0,98.0,13.4,1505.4,326.6,-0.7,1.9,2470.042,13.34,0.028,18.4
2019-11-05T16:44:43,42.805,6.029,0.015,0.012,0.039,99.0,103.0,98.0,13.4,1505.4,326.0,-0.7,1.9,2470.079,13.34,0.019,51.3
2019-11-05T16:47:44,42.805,6.029,0.014,0.012,-0.012,99.0,107.0,98.0,13.4,1505.4,323.8,-0.7,1.8,2470.045,13.34,0.018,49.4
2019-11-05T16:50:45,42.805,6.029,0.0,0.02,0.003,101.0,102.0,97.0,13.4,1505.4,324.6,-0.7,1.8,2470.067,13.34,0.02,0.0
2019-11-05T16:53:46,42.805,6.029,0.009,-0.006,-0.045,100.0,103.0,98.0,13.4,1505.4,327.0,-0.7,1.8,2470.03,13.34,0.01,123.7
2019-11-05T16:56:47,42.805,6.029,0.005,0.008,0.0,99.0,104.0,98.0,13.4,1505.4,324.5,-0.7,1.8,2470.059,13.34,0.009,32.0
2019-11-05T16:59:48,42.805,6.029,0.017,0.016,0.0,98.0,103.0,99.0,13.4,1505.4,325.1,-0.7,1.9,2470.056,13.34,0.023,46.7
2019-11-05T17:02:49,42.805,6.029,0.029,0.008,0.004,102.0,103.0,97.0,13.3,1505.4,323.9,-0.7,1.8,2470.065,13.34,0.03,74.6
2019-11-05T17:05:50,42.805,6.029,-0.004,0.008,-0.021,100.0,102.0,98.0,13.4,1505.4,323.2,-0.7,1.8,2470.029,13.34,0.008,333.4
2019-11-05T17:08:51,42.805,6.029,-0.007,0.02,-0.044,99.0,102.0,98.0,13.3,1505.4,324.1,-0.7,1.8,2470.065,13.35,0.021,340.7
2019-11-05T17:11:52,42.805,6.029,-0.003,0.011,-0.02,100.0,102.0,99.0,13.4,1505.4,324.5,-0.7,1.8,2470.045,13.35,0.011,344.7
2019-11-05T17:14:53,42.805,6.029,0.027,0.01,0.0,101.0,102.0,98.0,13.3,1505.4,325.4,-0.7,1.8,2470.053,13.35,0.028,69.7
2019-11-05T17:17:54,42.805,6.029,-0.009,0.014,-0.015,100.0,104.0,98.0,13.4,1505.4,323.7,-0.7,1.8,2470.091,13.35,0.016,327.3
2019-11-05T17:20:55,42.805,6.029,-0.027,0.035,-0.062,99.0,102.0,98.0,13.4,1505.4,324.9,-0.7,1.8,2470.064,13.35,0.044,322.3
2019-11-05T17:23:56,42.805,6.029,-0.012,0.004,-0.047,100.0,101.0,97.0,13.3,1505.4,323.8,-0.7,1.8,2470.078,13.35,0.012,288.4
2019-11-05T17:26:57,42.805,6.029,-0.003,0.027,-0.03,98.0,104.0,98.0,13.3,1505.4,324.2,-0.7,1.8,2470.053,13.35,0.027,353.7
2019-11-05T17:29:58,42.805,6.029,0.005,0.002,-0.017,100.0,102.0,97.0,13.4,1505.4,326.4,-0.7,1.8,2470.045,13.35,0.005,68.2
2019-11-05T17:32:59,42.805,6.029,-0.012,0.016,0.019,101.0,101.0,97.0,13.4,1505.4,327.7,-0.7,1.9,2470.036,13.35,0.02,323.1
2019-11-05T17:36:00,42.805,6.029,-0.002,0.01,-0.029,99.0,103.0,98.0,13.4,1505.4,325.9,-0.7,1.8,2470.011,13.35,0.01,348.7
2019-11-05T17:39:01,42.805,6.029,-0.001,0.03,0.006,100.0,102.0,98.0,13.3,1505.4,323.7,-0.7,1.8,2470.082,13.35,0.03,358.1
2019-11-05T17:42:02,42.805,6.029,0.004,0.0,-0.035,102.0,103.0,98.0,13.4,1505.4,323.7,-0.7,1.8,2470.04,13.35,0.004,90.0
2019-11-05T17:45:03,42.805,6.029,-0.009,0.0,-0.007,100.0,101.0,98.0,13.3,1505.4,327.0,-0.7,1.8,2470.014,13.35,0.009,270.0
2019-11-05T17:48:04,42.805,6.029,-0.008,0.034,-0.037,100.0,104.0,98.0,13.4,1505.4,328.5,-0.7,1.8,2470.039,13.35,0.034,346.8
2019-11-05T17:51:05,42.805,6.029,0.004,0.026,0.008,99.0,103.0,98.0,13.4,1505.4,326.5,-0.7,1.9,2470.054,13.35,0.026,8.7
2019-11-05T17:54:06,42.805,6.029,-0.011,0.009,-0.016,100.0,104.0,98.0,13.4,1505.4,327.0,-0.7,1.8,2470.039,13.35,0.014,309.3
2019-11-05T17:57:07,42.805,6.029,0.012,0.016,-0.009,100.0,102.0,97.0,13.3,1505.4,323.1,-0.7,1.9,2470.056,13.35,0.02,36.9
